Location: Bremen
(53.0830°N, 8.8000°E)
Time: 19:32:41
(UTC+01:00)

ISS - Visible Passes

Search period start: 25 March 2019 00:00
Search period end: 04 April 2019 01:00
Orbit: 408 x 411 km, 51.6° (Epoch: 25 March)

Date Brightness Start Highest point End Pass type
(mag) Time Alt. Az. Time Alt. Az. Time Alt. Az.
25 Mar -3.4 20:17:30 10° SW 20:20:39 43° SSE 20:21:38 32° ESE visible
25 Mar -1.0 21:53:46 10° W 21:54:25 15° W 21:54:25 15° W visible
26 Mar -2.9 19:27:08 10° SW 19:30:08 33° SSE 19:33:09 10° E visible
26 Mar -3.5 21:03:11 10° WSW 21:06:02 57° SW 21:06:02 57° SW visible
27 Mar -3.7 20:12:37 10° WSW 20:15:53 60° S 20:17:33 26° E visible
27 Mar -1.5 21:49:04 10° W 21:50:19 21° W 21:50:19 21° W visible
28 Mar -3.4 19:22:05 10° WSW 19:25:18 50° SSE 19:28:31 10° E visible
28 Mar -3.9 20:58:26 10° W 21:01:45 68° S 21:01:45 68° S visible
29 Mar -3.8 20:07:49 10° W 20:11:07 69° S 20:13:09 21° E visible
29 Mar -1.8 21:44:21 10° W 21:45:54 24° W 21:45:54 24° W visible
30 Mar -3.7 20:53:41 10° W 20:56:57 57° SSW 20:57:16 54° SSE visible
31 Mar -3.7 21:03:01 10° W 21:06:18 66° S 21:08:35 18° ESE visible
31 Mar -1.8 22:39:39 10° W 22:41:21 22° WSW 22:41:21 22° WSW visible
01 Apr -3.1 21:48:54 10° W 21:52:02 40° SSW 21:52:40 35° S visible
02 Apr -3.3 20:58:11 10° W 21:01:25 51° SSW 21:03:59 15° ESE visible
02 Apr -1.5 22:35:11 10° W 22:36:44 17° SW 22:36:44 17° SW visible
03 Apr -2.2 21:44:12 10° W 21:47:00 25° SSW 21:48:04 21° S visible
